Weather History for Point Pleasant, WV

Change the Weather History Date:

Friday, April 12, 2013

  Actual Average (KHTS) Record (KHTS)
Temperature  
Mean Temperature 56 °F 55 °F  
Max Temperature 62 °F 67 °F 92 °F (1930)
Min Temperature 50 °F 44 °F 25 °F (1976)
Degree Days  
Heating Degree Days 9 11  
Month to date heating degree days 147  
Since 1 July heating degree days 4244  
Cooling Degree Days 0 1  
Month to date cooling degree days 11  
Year to date cooling degree days 16  
Growing Degree Days 6 (Base 50)    
Moisture  
Dew Point 46 °F    
Average Humidity 67    
Maximum Humidity 94    
Minimum Humidity 36    
Precipitation  
Precipitation 0.00 in 0.11 in 2.62 in (1948)
Month to date precipitation 1.34  
Year to date precipitation 11.28  
Snow  
Snow 0.00 in - - ()
Month to date snowfall  
Since 1 September snowfall  
Snow Depth -    
Sea Level Pressure  
Sea Level Pressure 29.73 in    
Wind  
Wind Speed 7 mph (WSW)    
Max Wind Speed 18 mph    
Max Gust Speed 26 mph    
Visibility 10 miles    
Events Rain    
T = Trace of Precipitation, MM = Missing Value Source: NWS Daily Summary

Daily Weather History Graph

Daily Weather History Graph

Search for Another Location

Airport:

Trip Planner

Search our weather history database for the weather conditions in past years. The results will help you decide how hot, cold, wet, or windy it might be!

Date:

Astronomy

Apr. 12, 2013 Rise Set
Actual Time 6:55 AM EDT 8:02 PM EDT
Civil Twilight 6:28 AM EDT 8:30 PM EDT
Nautical Twilight 5:55 AM EDT 9:03 PM EDT
Astronomical Twilight 5:21 AM EDT 9:37 PM EDT
Moon 8:06 AM EDT (4/12) 10:31 PM EDT (4/12)
Length of Visible Light 14h 01m
Length of Day
13h 06m
Waxing Crescent, 5% of the Moon is Illuminated
Apr 12
Waxing Crescent
Apr 18
First Quarter
Apr 25
Full
May 2
Last Quarter
May 9
New

Hourly Weather History & Observations

Time (EDT) Temp. Dew Point Humidity Pressure Visibility Wind Dir Wind Speed Gust Speed Precip Events Conditions
12:15 AM 60.8 °F 59.0 °F 94% 29.66 in 10.0 mi SW 6.9 mph - N/A Rain Light Rain
12:35 AM 60.8 °F 59.0 °F 94% 29.63 in 7.0 mi SSE 3.5 mph - N/A Rain Light Rain
12:55 AM 60.8 °F 59.0 °F 94% 29.62 in 7.0 mi SE 5.8 mph - N/A Rain Rain
1:15 AM 60.8 °F 59.0 °F 94% 29.59 in 10.0 mi ESE 6.9 mph - N/A Rain Light Rain
1:35 AM 60.8 °F 59.0 °F 94% 29.55 in 10.0 mi East 9.2 mph - N/A Rain Light Rain
1:55 AM 60.8 °F 59.0 °F 94% 29.56 in 10.0 mi Calm Calm - N/A   Scattered Clouds
2:15 AM 60.8 °F 59.0 °F 94% 29.57 in 10.0 mi Calm Calm - N/A   Clear
2:35 AM 60.8 °F 59.0 °F 94% 29.57 in 10.0 mi Calm Calm - N/A   Scattered Clouds
2:55 AM 60.8 °F 59.0 °F 94% 29.56 in 10.0 mi Calm Calm - N/A   Clear
3:15 AM 60.8 °F 59.0 °F 94% 29.57 in 10.0 mi SSW 5.8 mph - N/A   Mostly Cloudy
3:35 AM 60.8 °F 59.0 °F 94% 29.53 in 10.0 mi ESE 5.8 mph - N/A   Overcast
3:55 AM 60.8 °F 59.0 °F 94% 29.53 in 10.0 mi SSE 3.5 mph - N/A   Overcast
4:15 AM 60.8 °F 59.0 °F 94% 29.54 in 10.0 mi SW 3.5 mph - N/A Rain Light Rain
4:35 AM 60.8 °F 59.0 °F 94% 29.54 in 10.0 mi Calm Calm - N/A Rain Light Rain
4:55 AM 60.8 °F 59.0 °F 94% 29.53 in 7.0 mi Calm Calm - N/A Rain Light Rain
5:15 AM 60.8 °F 59.0 °F 94% 29.52 in 5.0 mi Calm Calm - N/A Rain Light Rain
5:55 AM 60.8 °F 59.0 °F 94% 29.54 in 10.0 mi SW 4.6 mph - N/A   Overcast
6:15 AM 60.8 °F 59.0 °F 94% 29.55 in 10.0 mi SW 10.4 mph - N/A   Overcast
6:35 AM 60.8 °F 59.0 °F 94% 29.57 in 10.0 mi WSW 9.2 mph 17.3 mph N/A   Overcast
6:55 AM 60.8 °F 55.4 °F 82% 29.59 in 7.0 mi West 8.1 mph 23.0 mph N/A   Overcast
7:15 AM 59.0 °F 55.4 °F 88% 29.60 in 10.0 mi West 5.8 mph - N/A Rain Light Rain
7:35 AM 59.0 °F 53.6 °F 82% 29.64 in 10.0 mi WSW 8.1 mph - N/A   Overcast
7:55 AM 57.2 °F 51.8 °F 82% 29.65 in 10.0 mi WSW 5.8 mph 16.1 mph N/A   Overcast
8:15 AM 57.2 °F 53.6 °F 88% 29.66 in 10.0 mi WSW 5.8 mph - N/A   Overcast
8:35 AM 57.2 °F 53.6 °F 88% 29.67 in 10.0 mi WSW 5.8 mph - N/A   Overcast
8:55 AM 57.2 °F 51.8 °F 82% 29.68 in 3.0 mi WSW 8.1 mph 17.3 mph N/A   Haze
9:15 AM 55.4 °F 53.6 °F 94% 29.70 in 7.0 mi WSW 12.7 mph 19.6 mph N/A   Overcast
9:35 AM 57.2 °F 51.8 °F 82% 29.70 in 10.0 mi WSW 15.0 mph 21.9 mph N/A   Overcast
9:55 AM 55.4 °F 50.0 °F 82% 29.71 in 10.0 mi West 9.2 mph 21.9 mph N/A   Overcast
10:15 AM 53.6 °F 48.2 °F 82% 29.73 in 10.0 mi West 10.4 mph 17.3 mph N/A   Overcast
10:55 AM 53.6 °F 44.6 °F 72% 29.75 in 10.0 mi WSW 13.8 mph 25.3 mph N/A   Overcast
11:15 AM 55.4 °F 44.6 °F 67% 29.76 in 10.0 mi WSW 15.0 mph 23.0 mph N/A   Overcast
11:35 AM 55.4 °F 44.6 °F 67% 29.77 in 10.0 mi WSW 17.3 mph 23.0 mph N/A   Overcast
11:55 AM 59.0 °F 44.6 °F 59% 29.77 in 10.0 mi WSW 18.4 mph 21.9 mph N/A   Mostly Cloudy
12:15 PM 59.0 °F 42.8 °F 55% 29.78 in 10.0 mi WSW 13.8 mph 20.7 mph N/A   Mostly Cloudy
12:35 PM 60.8 °F 42.8 °F 52% 29.78 in 10.0 mi WSW 17.3 mph 25.3 mph N/A   Mostly Cloudy
12:55 PM 59.0 °F 41.0 °F 51% 29.78 in 10.0 mi WSW 18.4 mph 25.3 mph N/A   Scattered Clouds
1:15 PM 57.2 °F 41.0 °F 55% 29.78 in 10.0 mi WSW 12.7 mph 17.3 mph N/A   Scattered Clouds
1:35 PM 59.0 °F 42.8 °F 55% 29.78 in 10.0 mi West 10.4 mph 21.9 mph N/A   Mostly Cloudy
1:55 PM 59.0 °F 41.0 °F 51% 29.79 in 10.0 mi West 9.2 mph 19.6 mph N/A   Scattered Clouds
2:15 PM 59.0 °F 41.0 °F 51% 29.79 in 10.0 mi West 10.4 mph 19.6 mph N/A   Scattered Clouds
2:35 PM 60.8 °F 41.0 °F 48% 29.79 in 10.0 mi West 11.5 mph 20.7 mph N/A   Scattered Clouds
2:55 PM 62.6 °F 39.2 °F 42% 29.79 in 10.0 mi West 8.1 mph 20.7 mph N/A   Clear
3:15 PM 60.8 °F 37.4 °F 42% 29.79 in 10.0 mi WSW 12.7 mph 20.7 mph N/A   Clear
3:35 PM 60.8 °F 35.6 °F 39% 29.79 in 10.0 mi WSW 10.4 mph 20.7 mph N/A   Clear
3:55 PM 60.8 °F 35.6 °F 39% 29.79 in 10.0 mi WSW 13.8 mph 19.6 mph N/A   Clear
4:15 PM 60.8 °F 35.6 °F 39% 29.79 in 10.0 mi WSW 15.0 mph 19.6 mph N/A   Clear
4:35 PM 60.8 °F 35.6 °F 39% 29.79 in 10.0 mi WSW 13.8 mph 21.9 mph N/A   Clear
4:55 PM 60.8 °F 33.8 °F 36% 29.79 in 10.0 mi West 9.2 mph 20.7 mph N/A   Scattered Clouds
5:15 PM 59.0 °F 33.8 °F 39% 29.81 in 10.0 mi WSW 11.5 mph 26.5 mph N/A   Mostly Cloudy
5:35 PM 59.0 °F 33.8 °F 39% 29.82 in 10.0 mi WSW 12.7 mph 20.7 mph N/A   Mostly Cloudy
5:55 PM 57.2 °F 33.8 °F 41% 29.83 in 10.0 mi West 10.4 mph 19.6 mph N/A   Overcast
6:15 PM 55.4 °F 33.8 °F 44% 29.84 in 10.0 mi West 6.9 mph 19.6 mph N/A   Overcast
6:35 PM 55.4 °F 33.8 °F 44% 29.85 in 10.0 mi WSW 6.9 mph - N/A   Overcast
6:55 PM 55.4 °F 33.8 °F 44% 29.85 in 10.0 mi WSW 10.4 mph 17.3 mph N/A   Overcast
7:15 PM 53.6 °F 33.8 °F 47% 29.85 in 10.0 mi WSW 12.7 mph 26.5 mph N/A   Overcast
7:35 PM 53.6 °F 33.8 °F 47% 29.86 in 10.0 mi WSW 8.1 mph - N/A   Overcast
7:55 PM 53.6 °F 33.8 °F 47% 29.86 in 10.0 mi WSW 8.1 mph - N/A   Overcast
8:15 PM 53.6 °F 35.6 °F 51% 29.86 in 10.0 mi WSW 4.6 mph - N/A   Overcast
8:35 PM 53.6 °F 35.6 °F 51% 29.87 in 10.0 mi Calm Calm - N/A   Overcast
8:55 PM 53.6 °F 35.6 °F 51% 29.87 in 10.0 mi West 3.5 mph - N/A   Overcast
9:15 PM 53.6 °F 35.6 °F 51% 29.89 in 10.0 mi Calm Calm - N/A   Overcast
9:35 PM 53.6 °F 35.6 °F 51% 29.90 in 10.0 mi Calm Calm - N/A   Overcast
9:55 PM 53.6 °F 35.6 °F 51% 29.90 in 10.0 mi WNW 3.5 mph - N/A   Overcast
10:15 PM 53.6 °F 35.6 °F 51% 29.91 in 10.0 mi West 4.6 mph - N/A   Overcast
10:35 PM 51.8 °F 35.6 °F 54% 29.92 in 10.0 mi WNW 5.8 mph - N/A   Overcast
10:55 PM 51.8 °F 35.6 °F 54% 29.93 in 10.0 mi WNW 5.8 mph - N/A   Overcast
11:15 PM 51.8 °F 35.6 °F 54% 29.94 in 10.0 mi WNW 4.6 mph - N/A   Overcast
11:35 PM 50.0 °F 35.6 °F 58% 29.94 in 10.0 mi WNW 5.8 mph - N/A   Overcast
11:55 PM 50.0 °F 35.6 °F 58% 29.94 in 10.0 mi West 4.6 mph - N/A   Overcast